Location: Keppel Henge
(44.7900°N, 80.9447°W)
Time: 06:07:16

Envisat - Pass Details

Date: 12 October 2017
Orbit: 764 x 766 km, 98.2° (Epoch: 19 March)

Event Time Altitude Azimuth Distance (km) Brightness Sun altitude
Exits shadow 21:33:47 55° 269° (W) 917 3.5 -30.5°
Drops below altitude 10° 21:38:37 10° 338° (NNW) 2,314 6.0 -31.3°
Sets 21:41:00 0° 343° (NNW) 3,244 6.8 -31.7°
